{"data":{"norad_id":56484,"epoch":"2026-05-25T03:30:04.906368Z","epoch_age_seconds":72856,"freshness":"FRESH","line1":"1 56484U 23064AN  26145.14589012  .00000161  00000+0  21307-4 0  9994","line2":"2 56484  69.9987 291.5995 0003094 267.0112  93.0693 14.98329924167186","mean_motion":14.98329924,"eccentricity":0.0003094,"inclination_deg":69.9987,"raan_deg":291.5995,"arg_perigee_deg":267.0112,"mean_anomaly_deg":93.0693,"bstar":2.1307e-5,"rev_number":16718,"period_min":96.107004000542,"perigee_km":569.90573621498,"apogee_km":574.20651572133,"semimajor_km":6950.1931259682,"source":"CELESTRAK","updated_at":"2026-05-25T13:38:18.074019Z"}}